Change the Weather History Date:

Tuesday, October 15, 2013

  Actual Average Record
Temperature  
Mean Temperature 69 °F 64 °F  
Max Temperature 75 °F 76 °F 92 °F (1963)
Min Temperature 63 °F 51 °F 34 °F (1955)
Degree Days  
Heating Degree Days 0 3  
Month to date heating degree days 21 37  
Since 1 July heating degree days 21 46  
Cooling Degree Days 4 2  
Month to date cooling degree days 79 44  
Year to date cooling degree days 2015 1909  
Growing Degree Days 18 (Base 50)    
Moisture  
Dew Point 68 °F    
Average Humidity 97    
Maximum Humidity 100    
Minimum Humidity 93    
Precipitation  
Precipitation 0.93 in 0.14 in 2.64 in (1984)
Month to date precipitation 1.18 2.19  
Year to date precipitation 27.43 37.39  
Snow  
Snow 0.00 in - - ()
Month to date snowfall 0.0  
Since 1 July snowfall 0.0  
Since 1 September snowfall 0.0  
Snow Depth 0.00 in    
Sea Level Pressure  
Sea Level Pressure 29.94 in    
Wind  
Wind Speed 4 mph (ESE)    
Max Wind Speed 14 mph    
Max Gust Speed 18 mph    
Visibility 4 miles    
Events Rain    
T = Trace of Precipitation, MM = Missing Value Source: NWS Daily Summary

Daily Weather History Graph

Daily Weather History Graph

Search for Another Location

Airport or City:

Trip Planner

Search our weather history database for the weather conditions in past years. The results will help you decide how hot, cold, wet, or windy it might be!

Date:

Astronomy

Oct. 15, 2013 Rise Set
Actual Time 7:22 AM CDT 6:43 PM CDT
Civil Twilight 6:57 AM CDT 7:08 PM CDT
Nautical Twilight 6:28 AM CDT 7:37 PM CDT
Astronomical Twilight 5:59 AM CDT 8:06 PM CDT
Moon 4:41 PM CDT (10/15) 3:55 AM CDT (10/15)
Length of Visible Light 12h 10m
Length of Day
11h 20m
Waxing Gibbous, 88% of the Moon is Illuminated
Oct 15
Waxing Gibbous
Oct 18
Full
Oct 26
Last Quarter
Nov 3
New
Nov 9
First Quarter

Hourly Weather History & Observations

Time (CDT) Temp. Dew Point Humidity Pressure Visibility Wind Dir Wind Speed Gust Speed Precip Events Conditions
12:01 AM 68.0 °F 66.9 °F 96% 29.98 in 4.0 mi ESE 6.9 mph - N/A   Overcast
12:14 AM 68.0 °F 66.9 °F 96% 29.98 in 3.0 mi East 4.6 mph - N/A   Overcast
12:53 AM 68.0 °F 66.9 °F 96% 29.95 in 4.0 mi ESE 5.8 mph - N/A   Overcast
1:53 AM 70.0 °F 68.0 °F 93% 29.95 in 5.0 mi Variable 3.5 mph - 0.00 in   Overcast
2:01 AM 70.0 °F 68.0 °F 93% 29.96 in 5.0 mi ESE 3.5 mph - N/A   Overcast
2:53 AM 70.0 °F 69.1 °F 97% 29.95 in 5.0 mi Calm Calm - N/A   Overcast
3:10 AM 70.0 °F 69.1 °F 97% 29.95 in 4.0 mi SE 3.5 mph - 0.00 in Rain Light Rain
3:53 AM 70.0 °F 69.1 °F 97% 29.94 in 4.0 mi Variable 3.5 mph - 0.00 in Rain Light Rain
4:03 AM 70.0 °F 69.1 °F 97% 29.94 in 4.0 mi Variable 3.5 mph - 0.00 in Rain Light Rain
4:53 AM 70.0 °F 69.1 °F 97% 29.92 in 4.0 mi ESE 4.6 mph - 0.00 in   Overcast
5:24 AM 71.1 °F 69.1 °F 93% 29.93 in 4.0 mi Variable 3.5 mph - N/A   Overcast
5:29 AM 71.1 °F 70.0 °F 96% 29.93 in 4.0 mi Calm Calm - N/A   Overcast
5:41 AM 71.1 °F 69.1 °F 93% 29.93 in 4.0 mi South 3.5 mph - N/A   Overcast
5:53 AM 71.1 °F 70.0 °F 96% 29.92 in 4.0 mi Calm Calm - N/A   Overcast
6:00 AM 71.1 °F 70.0 °F 96% 29.93 in 4.0 mi Calm Calm - N/A   Overcast
6:40 AM 71.1 °F 70.0 °F 96% 29.93 in 3.0 mi SSE 3.5 mph - N/A   Overcast
6:53 AM 71.1 °F 70.0 °F 96% 29.92 in 4.0 mi South 5.8 mph - N/A   Overcast
7:15 AM 71.1 °F 70.0 °F 96% 29.92 in 3.0 mi SSE 5.8 mph - 0.00 in Rain Light Rain
7:39 AM 71.1 °F 70.0 °F 96% 29.93 in 4.0 mi SSE 6.9 mph 18.4 mph 0.01 in Rain Light Rain
7:51 AM 71.6 °F 69.8 °F 94% 29.93 in 4.0 mi Variable 6.9 mph - 0.01 in   Overcast
7:53 AM 71.1 °F 70.0 °F 96% 29.91 in 4.0 mi South 8.1 mph - 0.01 in   Overcast
8:00 AM 71.1 °F 70.0 °F 96% 29.93 in 3.0 mi South 13.8 mph 18.4 mph N/A   Overcast
8:18 AM 71.1 °F 70.0 °F 96% 29.93 in 2.5 mi SSW 5.8 mph - 0.00 in Rain Light Rain
8:53 AM 72.0 °F 71.1 °F 97% 29.91 in 2.0 mi SSW 5.8 mph - 0.00 in Rain Light Rain
8:56 AM 72.0 °F 71.1 °F 97% 29.93 in 1.8 mi SSW 6.9 mph - 0.01 in Rain Rain
9:15 AM 72.0 °F 71.1 °F 97% 29.93 in 2.5 mi SSW 3.5 mph - 0.04 in   Overcast
9:22 AM 72.0 °F 71.1 °F 97% 29.93 in 2.5 mi SSW 5.8 mph - 0.04 in Rain Light Rain
9:39 AM 72.0 °F 71.1 °F 97% 29.92 in 3.0 mi SSW 4.6 mph - 0.04 in   Overcast
9:46 AM 72.0 °F 71.1 °F 97% 29.93 in 2.5 mi SSW 4.6 mph - 0.04 in   Overcast
9:53 AM 72.0 °F 71.1 °F 97% 29.91 in 2.5 mi SSW 4.6 mph - 0.04 in   Overcast
10:03 AM 72.0 °F 71.1 °F 97% 29.93 in 3.0 mi SW 6.9 mph - N/A   Overcast
10:17 AM 73.0 °F 71.1 °F 93% 29.93 in 3.0 mi SW 5.8 mph - N/A   Overcast
10:53 AM 73.0 °F 72.0 °F 96% 29.92 in 3.0 mi SSW 6.9 mph - N/A   Overcast
11:03 AM 73.0 °F 72.0 °F 96% 29.93 in 3.0 mi SW 6.9 mph - N/A   Overcast
11:26 AM 73.9 °F 72.0 °F 93% 29.93 in 4.0 mi SW 5.8 mph - N/A   Overcast
11:53 AM 73.9 °F 72.0 °F 93% 29.92 in 5.0 mi SW 5.8 mph - N/A   Overcast
12:23 PM 73.9 °F 72.0 °F 93% 29.93 in 3.0 mi Variable 5.8 mph - 0.01 in Rain Rain
12:32 PM 70.0 °F 68.0 °F 93% 29.94 in 2.5 mi NNW 8.1 mph 18.4 mph 0.05 in Rain Rain
12:39 PM 69.1 °F 68.0 °F 96% 29.94 in 1.0 mi NNE 5.8 mph - 0.17 in Rain Heavy Rain
12:53 PM 68.0 °F 66.9 °F 96% 29.93 in 1.2 mi NNE 6.9 mph - 0.30 in Rain Heavy Rain
1:05 PM 68.0 °F 68.0 °F 100% 29.94 in 3.0 mi ENE 4.6 mph - 0.04 in Rain Light Rain
1:14 PM 68.0 °F 68.0 °F 100% 29.94 in 1.8 mi Calm Calm - 0.08 in Rain Rain
1:33 PM 68.0 °F 68.0 °F 100% 29.93 in 3.0 mi ENE 3.5 mph - 0.12 in Rain Light Rain
1:53 PM 68.0 °F 68.0 °F 100% 29.92 in 3.0 mi Calm Calm - 0.14 in Rain Rain
1:59 PM 68.0 °F 68.0 °F 100% 29.93 in 2.0 mi ENE 3.5 mph - 0.03 in Rain Rain
2:08 PM 68.0 °F 66.9 °F 96% 29.93 in 1.0 mi Calm Calm - 0.09 in Rain Heavy Rain
2:30 PM 68.0 °F 66.9 °F 96% 29.92 in 3.0 mi ENE 5.8 mph - 0.13 in Rain Light Rain
2:53 PM 69.1 °F 68.0 °F 96% 29.90 in 3.0 mi ENE 6.9 mph - 0.14 in Rain Light Rain
3:53 PM 69.1 °F 68.0 °F 96% 29.92 in 8.0 mi Calm Calm - 0.01 in Rain Light Rain
4:04 PM 69.1 °F 66.9 °F 93% 29.93 in 2.5 mi Calm Calm - 0.03 in Rain Rain
4:19 PM 68.0 °F 66.9 °F 96% 29.93 in 3.0 mi NE 3.5 mph - 0.06 in Rain Rain
4:30 PM 68.0 °F 68.0 °F 100% 29.94 in 2.5 mi Calm Calm - 0.09 in Rain Rain
4:39 PM 68.0 °F 66.9 °F 96% 29.93 in 3.0 mi East 6.9 mph - 0.12 in Rain Rain
4:46 PM 68.0 °F 66.9 °F 96% 29.93 in 4.0 mi East 6.9 mph - 0.12 in Rain Light Rain
4:53 PM 68.0 °F 66.0 °F 93% 29.92 in 6.0 mi East 6.9 mph - 0.12 in Rain Light Rain
5:01 PM 66.9 °F 66.9 °F 100% 29.93 in 6.0 mi East 8.1 mph - 0.00 in Rain Light Rain
5:08 PM 66.9 °F 66.0 °F 97% 29.93 in 5.0 mi East 6.9 mph - 0.00 in Rain Light Rain
5:15 PM 66.9 °F 66.0 °F 97% 29.93 in 5.0 mi East 6.9 mph - 0.00 in Rain Light Rain
5:23 PM 66.9 °F 66.0 °F 97% 29.93 in 5.0 mi East 5.8 mph - 0.00 in Rain Light Rain
5:50 PM 66.2 °F 66.2 °F 100% 29.93 in 10.0 mi ENE 4.6 mph - 0.00 in Rain Light Rain
5:53 PM 66.9 °F 66.0 °F 97% 29.92 in 10.0 mi ENE 3.5 mph - 0.00 in Rain Light Rain
6:41 PM 66.9 °F 66.0 °F 97% 29.95 in 10.0 mi Calm Calm - 0.00 in Rain Light Rain
6:53 PM 66.0 °F 66.0 °F 100% 29.94 in 9.0 mi East 4.6 mph - 0.00 in Rain Light Rain
7:28 PM 66.0 °F 64.9 °F 96% 29.96 in 9.0 mi East 3.5 mph - 0.00 in Rain Light Rain
7:35 PM 66.0 °F 64.9 °F 96% 29.96 in 7.0 mi ESE 3.5 mph - 0.00 in Rain Light Rain
7:53 PM 66.0 °F 64.9 °F 96% 29.96 in 6.0 mi East 3.5 mph - 0.01 in Rain Light Rain
8:07 PM 66.0 °F 64.9 °F 96% 29.97 in 6.0 mi East 3.5 mph - 0.00 in Rain Light Rain
8:53 PM 66.0 °F 64.9 °F 96% 29.96 in 5.0 mi ENE 4.6 mph - 0.02 in Rain Rain
9:53 PM 64.9 °F 64.9 °F 100% 29.97 in 5.0 mi NE 4.6 mph - N/A Rain Light Rain
10:32 PM 64.9 °F 64.9 °F 100% 30.01 in 2.5 mi Calm Calm - 0.04 in Rain Rain
10:53 PM 64.9 °F 64.0 °F 97% 30.00 in 3.0 mi ENE 3.5 mph - 0.09 in Rain Rain
11:41 PM 64.0 °F 64.0 °F 100% 30.00 in 5.0 mi East 5.8 mph - 0.04 in Rain Light Rain
11:53 PM 64.0 °F 63.0 °F 96% 29.97 in 6.0 mi East 9.2 mph - 0.04 in Rain Light Rain